SMOS

Satellite information

Favourite Embed

Satellite Type and Status

PAYLOADIN ORBIT

Key statistics

Satellite SMOS at a glance.

Uptime

5834

Days in orbit

Revolutions

≈ 14.4

Per day

Orbit

SSO

Sun Synchronous Orbit

Inclination

98.4

Latest

Satellite identification and parameters

Extended collection of information and parameters for SMOS.

Object identification

Identified? True

Debris? False

Object name: SMOS

International designator: 2009-059A

Object number (NORAD): 36036

Object ID (CCSDS): 36036

Country: EUROPEAN SPACE AGENCY (ESA)

Current information (Y/N): Y

RCS size: LARGE

Orbital parameters

Period: 100.018 minutes

Inclination: 98.4414 deg

SMA: 7137.506 km

Apoapsis: 760.323 km

Periapsis: 758.418 km

RAAN: 121.6533 deg

Eccentricy: 0.0001334

Argument of periapsis: 91.1634 deg

Mean anomaly: 268.9707 deg

Mean motion: 14.397367 rev/day

Mean motion (dot): 0.00000517 rev/day2

B* drag term: 0.00017884792 1/REarth

Two-line elements (TLE)

Creation date: Oct. 23, 2025, 2:46 a.m.

Reference frame: TEME

Reference center: EARTH

Epoch: Oct. 22, 2025, 8:38 p.m. UTC

TLE line 0: 0 SMOS

TLE line 1: 1 36036U 09059A 25295.85989510 .00000517 00000-0 17885-3 0 9994

TLE line 2: 2 36036 98.4414 121.6533 0001334 91.1634 268.9707 14.39736700839308

Live tracking on map

Real-time ground track for satellite SMOS.

In-orbit conjunctions

There are no conjunctions computed for SMOS, at the moment. Check back to stay up to date, as we update our databases every day.

Go to all conjunctions

Associated space launch

SMOS (Soil Moisture and Ocean Salinity) is a earth observation satellite operated by ESA. It is intented to provide new insights into Earth's water cycle and climate.

SMOS was lifted into orbit during the mission ‘Rokot / Briz-KM | SMOS’, on board a Rokot/Briz-KM space rocket.

The launch took place on Nov. 2, 2009, 1:50 a.m. from 133/3 (133L).

For more information about the launch, click the button.

Launch to space Rokot / Briz-KM | SMOS
Rokot / Briz-KM | SMOS

Agency: N/A

Status: Launch Successful

Launch date: Nov. 2, 2009, 1:50 a.m. UTC

Rocket: Rokot/Briz-KM

Launch pad: 133/3 (133L)

Location: Plesetsk Cosmodrome, Russian Federation

...

Latest news about this satellite

News about space launch
SMOS adds long-term view on carbon stored in forests

Data from ESA’s Soil Moisture and Ocean Salinity (SMOS) mission can be used to estimate how much carbon is stored in forests – and a study has improved our understanding of how reliable this proxy is and how long-term datasets from SMOS can help us to mon...

News about space launch
Proba-2’s glimpse of home

Proba-2’s glimpse of home


Newsletter sign-up

Weekly statistics, charts and insights to help you stay on top of the space industry.